星链-34355 (STARLINK-34355)

导读 | 豆包AI

STARLINK-34355是美国于2025年6月8日发射的星链卫星,隶属于SpaceX公司的星链互联网卫星星座项目。星链计划旨在通过构建近地轨道卫星群,为全球提供高速低延迟的互联网覆盖服务,该卫星的发射延续了星链星座扩张部署的节奏,推进了全球卫星互联网组网进程。

Basic Information
目录编号:
64306
目录名称:
STARLINK-34355
国际标识:
2025-123R
轨道中心:
EARTH
卫星名称:
星链-34355
卫星全名:
星链-34355 (STARLINK-34355)
卫星状态:
在轨 (已飞行279 天)
发射日期:
2025-06-08 UTC
国别 :
美国 (US)
星等 :
--
Orbit Information
数据来源 国际轨道数据 AOE轨道数据
星历时间 2026-03-14T08:39:22+0800
17小时前
查看轨道信息
2026-03-09T06:00:00+0800
5天前
查看轨道信息
半长轴 6950.12km 6950.173km
偏心率 0.0002518 0.0003957
轨道倾角 70.004° 70.002°
近地点辐角 277.416° 272.080°
升交点赤经 183.700° 196.588°
平近点角 82.671° 248.951°
近地点 570.232km 569.285km
远地点 573.734km 574.787km
周期 96.105分钟 96.107分钟
每日圈数 14.983536 14.983366
Detailed Information
固有亮度:
5
最大亮度:
2.5
卫星平台:
Starlink V1.0
覆盖范围:
全球
运营商:
太空探索技术公司
运营商所在国:
美国
制造商(研发单位):
太空探索技术公司
制造商所在国:
美国
使用方式:
暂无
Satellite Introduction
Starlink 计划是 SpaceX 推出的全球卫星互联网项目,通过发射低轨道卫星,为全球尤其是偏远地区提供高速、低延迟的互联网服务。自 2019 年起,Starlink 已部署数千颗卫星,旨在缩小全球数字鸿沟,推动互联网普及。该项目还为军事、航空等行业提供通信支持,带来广泛经济效益。
2D Orbit Map
3D Orbit Map
Orbit Altitude Analysis Chart
Orbit Inclination Analysis Chart
Orbit Comprehensive Analysis Chart
View Comprehensive Chart